Date,TemperatureHighF,TemperatureAvgF,TemperatureLowF,DewpointHighF,DewpointAvgF,DewpointLowF,HumidityHigh,HumidityAvg,HumidityLow,PressureMaxIn,PressureMinIn,WindSpeedMaxMPH,WindSpeedAvgMPH,GustSpeedMaxMPH,PrecipitationSumIn
2013-1-1,37,31,28,37,11,-100,100,68,69,0.00,40.00,9,5,17,0.00
2013-1-2,28,26,21,23,21,17,89,81,72,0.00,40.00,6,4,13,0.00
2013-1-3,34,27,17,30,22,14,92,82,64,0.00,40.00,9,5,19,0.00
2013-1-4,36,32,30,30,24,21,88,72,55,0.00,40.00,13,8,24,0.00
2013-1-5,41,35,30,31,28,25,88,76,63,0.00,40.00,10,6,17,0.00
2013-1-6,42,39,37,39,23,-100,99,77,70,0.00,40.00,14,7,21,0.00
2013-1-7,42,38,34,37,22,-100,99,76,61,0.00,40.00,12,6,21,0.00
2013-1-8,47,38,30,34,29,26,92,72,43,0.00,40.00,12,5,20,0.00
2013-1-9,54,46,40,43,36,31,88,67,50,0.00,40.00,12,7,23,0.00
2013-1-10,49,41,31,41,8,-100,99,57,48,0.00,40.00,6,1,12,0.00
2013-1-11,61,53,46,59,8,-100,99,57,47,0.00,40.00,11,6,22,6.76
2013-1-12,66,59,53,61,-25,-100,100,42,81,0.00,40.00,12,5,19,0.00
2013-1-13,70,56,42,67,-65,-100,98,19,83,0.00,40.00,16,6,27,6.68
2013-1-14,42,35,33,38,7,-100,98,67,73,0.00,40.00,14,6,24,0.00
2013-1-15,37,33,31,29,27,24,88,78,64,0.00,40.00,9,3,12,0.00
2013-1-16,42,36,33,30,27,23,85,70,53,0.00,40.00,12,4,21,0.00
2013-1-17,41,38,29,37,31,19,90,76,61,0.00,40.00,15,6,25,0.00
2013-1-18,41,32,25,23,18,11,77,56,46,0.00,40.00,19,9,36,0.00
2013-1-19,56,49,41,34,28,22,52,44,38,0.00,40.00,17,10,30,0.00
2013-1-20,53,34,26,38,22,13,72,60,47,0.00,40.00,25,12,41,0.55
2013-1-21,27,23,15,21,8,-100,100,71,56,0.00,40.00,17,7,28,8.46
2013-1-22,16,13,11,15,8,2,97,80,66,0.00,40.00,17,10,29,8.38
2013-1-23,20,16,12,18,13,6,96,89,65,0.00,40.00,14,6,25,11.72
2013-1-24,23,20,13,21,11,-100,99,70,44,0.00,40.00,18,6,23,0.00
2013-1-25,24,20,15,21,15,9,95,81,65,0.00,40.00,5,2,12,2.20
2013-1-26,29,27,22,28,2,-100,99,74,78,0.00,40.00,10,3,16,1.10
2013-1-27,35,28,17,34,21,16,99,78,54,0.00,40.00,9,3,15,0.00
2013-1-28,53,45,33,36,-88,-100,100,9,95,0.00,40.00,14,7,23,2.20
2013-1-29,67,56,43,63,-60,-100,99,23,80,0.00,40.00,14,6,26,0.00
2013-1-30,69,62,43,63,17,-100,99,61,71,0.00,40.00,25,12,39,3.34
2013-1-31,43,29,25,42,17,-100,96,72,62,0.00,40.00,19,12,32,3.38
2013-2-1,25,21,17,20,-8,-100,99,60,62,0.00,40.00,16,9,28,2.24
2013-2-2,28,22,17,27,-15,-100,99,63,74,0.00,40.00,10,5,16,16.12
2013-2-3,26,24,22,23,-17,-100,98,59,77,0.00,40.00,12,6,23,3.30
2013-2-4,30,26,22,28,-5,-100,99,68,66,0.00,40.00,11,3,24,2.75
2013-2-5,35,29,24,30,-39,-100,99,41,72,0.00,40.00,6,2,10,3.38
2013-2-6,36,29,22,33,4,-100,100,61,44,0.00,40.00,10,4,19,0.00
2013-2-7,52,38,22,33,25,17,82,60,39,0.00,40.00,9,3,16,0.00
2013-2-8,44,36,28,42,-24,-100,99,50,71,0.00,40.00,16,9,31,9.47
2013-2-9,35,29,23,28,26,23,99,88,69,0.00,40.00,15,4,23,0.00
2013-2-10,55,40,21,35,10,-100,100,47,30,0.00,40.00,9,4,24,0.00
2013-2-11,56,46,38,52,21,-100,99,66,57,0.00,40.00,20,11,31,0.00
2013-2-12,38,36,30,32,21,-100,99,73,72,0.00,40.00,13,6,23,0.00
2013-2-13,40,33,28,34,20,-100,99,81,68,0.00,40.00,6,2,12,0.00
2013-2-14,44,38,29,42,6,-100,99,70,74,0.00,40.00,15,7,27,0.00
2013-2-15,42,36,31,35,30,22,98,79,65,0.00,40.00,13,5,27,0.55
2013-2-16,33,29,25,26,22,12,98,74,42,0.00,40.00,9,3,17,0.00
2013-2-17,26,22,13,24,-13,-100,99,59,61,0.00,40.00,10,5,19,1.10
2013-2-18,49,31,13,35,20,10,91,65,42,0.00,40.00,13,6,27,0.00
2013-2-19,54,37,22,46,-6,-100,100,60,48,0.00,40.00,21,10,35,10.03
2013-2-20,26,24,21,22,10,-100,99,72,61,0.00,40.00,16,9,27,6.68
2013-2-21,26,24,22,22,19,16,88,80,69,0.00,40.00,12,5,18,0.55
2013-2-22,43,34,22,43,24,-100,99,84,71,0.00,40.00,9,-2,25,1.10
2013-2-23,42,37,34,37,32,27,94,81,69,0.00,40.00,14,5,22,0.00
2013-2-24,37,34,31,34,29,26,92,82,76,0.00,40.00,14,6,20,0.00
2013-2-25,45,36,26,39,29,25,99,79,48,0.00,40.00,7,2,13,0.00
2013-2-26,44,38,31,41,30,25,99,74,53,0.00,40.00,12,4,25,3.34
2013-2-27,47,42,38,46,41,38,99,97,87,0.00,40.00,10,5,18,3.93
2013-2-28,39,37,35,39,37,35,99,98,91,0.00,40.00,11,6,18,0.55
2013-3-1,35,32,29,35,29,26,99,90,78,0.00,40.00,14,8,22,0.55
2013-3-2,31,29,27,31,28,24,99,93,83,0.00,40.00,10,7,18,1.65
2013-3-3,30,28,27,29,27,24,99,93,81,0.00,40.00,11,6,17,7.74
2013-3-4,36,30,24,27,24,21,95,79,64,0.00,40.00,9,3,14,0.00
2013-3-5,46,32,22,32,27,21,99,84,39,0.00,40.00,8,3,13,0.00
2013-3-6,48,39,35,37,34,32,97,80,56,0.00,40.00,13,4,18,0.00
2013-3-7,40,37,33,40,37,32,99,98,94,0.00,40.00,9,3,16,0.00
2013-3-8,40,35,30,38,34,30,99,96,87,0.00,40.00,7,2,11,0.00
2013-3-9,58,42,26,41,32,26,99,72,40,0.00,40.00,6,2,11,0.00
2013-3-10,70,62,54,40,37,31,51,39,29,0.00,40.00,14,6,24,0.00
2013-3-11,67,57,47,57,49,37,99,77,34,0.00,40.00,16,6,27,8.93
2013-3-12,47,41,38,45,37,32,97,86,76,0.00,40.00,12,6,21,0.00
2013-3-13,38,35,32,33,28,21,94,76,57,0.00,40.00,16,9,29,1.65
2013-3-14,39,34,31,25,22,19,65,59,50,0.00,40.00,13,7,24,0.00
2013-3-15,45,39,36,39,32,24,99,77,59,0.00,40.00,14,5,21,5.54
2013-3-16,38,35,33,37,35,33,99,99,97,0.00,40.00,9,2,16,10.11
2013-3-17,36,33,29,34,28,20,99,81,59,0.00,40.00,11,4,17,0.00
2013-3-18,46,38,29,46,34,20,99,87,65,0.00,40.00,10,5,26,4.49
2013-3-19,44,36,30,43,32,22,99,88,56,0.00,40.00,18,10,29,3.94
2013-3-20,35,33,29,28,22,17,84,62,55,0.00,40.00,16,9,27,0.55
2013-3-21,34,28,24,33,25,16,99,88,60,0.00,40.00,14,8,23,6.09
2013-3-22,39,33,28,33,27,22,99,80,60,0.00,40.00,13,7,21,1.65
2013-3-23,40,32,21,34,26,21,99,81,59,0.00,40.00,7,3,14,0.00
2013-3-24,39,34,27,38,34,26,99,98,82,0.00,40.00,9,3,19,0.00
2013-3-25,39,37,35,39,37,34,99,99,99,0.00,40.00,9,3,15,9.98
2013-3-26,43,38,37,43,38,36,99,99,99,0.00,40.00,9,4,16,3.30
2013-3-27,45,40,37,45,40,37,99,99,99,0.00,40.00,17,8,24,2.24
2013-3-28,46,41,38,46,41,38,99,99,99,0.00,40.00,10,4,14,0.00
2013-3-29,50,44,36,50,44,35,99,99,99,0.00,40.00,10,4,16,0.00
2013-3-30,61,46,33,61,46,33,99,99,99,0.00,40.00,10,3,16,0.00
2013-3-31,58,52,48,58,51,-100,99,99,99,0.00,40.00,10,5,20,0.00